This is the latest recevied weather packets stored in our database for station/object NE1CU. If no packets are shown the sender has not sent any weather packets the latest 10 day(s).
| Time | Temp. | Humidity | Pressure | Rain* | Wind** | Luminosity | Snow |
|---|---|---|---|---|---|---|---|
| 1777768666 | 10.56° C | 76% | 1010.5 hPa | 0 mm | - | 0 W/m² | - |
| 1777768363 | 10.56° C | 75% | 1010.4 hPa | 0 mm | - | 0 W/m² | - |
| 1777768060 | 10.56° C | 74% | 1010.3 hPa | 0 mm | - | 0 W/m² | - |
| 1777767757 | 11.11° C | 73% | 1010.4 hPa | 0 mm | - | 0 W/m² | - |
| 1777767453 | 11.11° C | 72% | 1010.3 hPa | 0 mm | - | 0 W/m² | - |
| 1777767149 | 11.67° C | 71% | 1010.2 hPa | 0 mm | - | 0 W/m² | - |
| 1777766848 | 11.67° C | 71% | 1010.2 hPa | 0 mm | - | 0 W/m² | - |
| 1777766544 | 11.67° C | 71% | 1010.3 hPa | 0 mm | - | 1 W/m² | - |
| 1777766241 | 12.22° C | 70% | 1010.1 hPa | 0 mm | - | 2 W/m² | - |
| 1777765939 | 12.22° C | 69% | 1010.2 hPa | 0 mm | - | 3 W/m² | - |
| 1777765635 | 12.22° C | 69% | 1010.2 hPa | 0 mm | - | 4 W/m² | - |
| 1777765333 | 12.22° C | 69% | 1010.1 hPa | 0 mm | - | 6 W/m² | - |
| 1777765028 | 12.22° C | 69% | 1010.2 hPa | 0 mm | - | 8 W/m² | - |
| 1777764725 | 12.78° C | 68% | 1009.9 hPa | 0 mm | - | 9 W/m² | - |
| 1777764421 | 12.78° C | 67% | 1009.9 hPa | 0 mm | - | 13 W/m² | - |
| 1777764119 | 12.78° C | 63% | 1009.9 hPa | 0 mm | - | 14 W/m² | - |
| 1777763815 | 12.78° C | 63% | 1009.7 hPa | 0 mm | - | 28 W/m² | - |
| 1777763513 | 12.78° C | 63% | 1009.8 hPa | 0 mm | - | 40 W/m² | - |
| 1777763211 | 13.33° C | 64% | 1009.7 hPa | 0 mm | - | 44 W/m² | - |
| 1777762910 | 13.33° C | 61% | 1009.9 hPa | 0 mm | - | 52 W/m² | - |
| 1777762604 | 13.33° C | 64% | 1009.6 hPa | 0 mm | - | 56 W/m² | - |
| 1777762302 | 13.33° C | 63% | 1009.8 hPa | 0 mm | - | 68 W/m² | - |
| 1777761998 | 13.33° C | 63% | 1009.7 hPa | 0 mm | - | 72 W/m² | - |
| 1777761695 | 13.89° C | 61% | 1009.6 hPa | 0 mm | - | 83 W/m² | - |
| 1777761393 | 13.89° C | 60% | 1009.7 hPa | 0 mm | - | 106 W/m² | - |
* Rain latest hour (hover to see other rain measurements)
** Current wind speed in m/s (hover to see current wind gust speed)